STARLINK-1653, 46352

Orbit data source: Space-Track

STARLINK-1653, 46352 is a payload satellite owned by SpaceX/Seattle (US) in LEO that was launched on Thu, 03 Sep 2020 UTC via an FALCON 9 launch vehicle from the Air Force Eastern Test Range (AFETR). Payload-class satellites include a variety of spacecraft equipped with specific instruments for various scientific and technological missions. These include communications satellites like Starlink; space stations such as the ISS; scientific satellites like the Hubble; Earth observation satellites from companies like Planet Labs, Umbra, and HawkEye 360; GPS; miniature CubeSats for education and research; and military/defense satellites.

Loading next visibility...
Identifier
46352, 2020-062AD
Orbit
LEO
Country
Flag of USUS
Related business
Manufacturer
SpaceX/Seattle
Mission
Operational Commercial Communications
Bus & Motor
STARLINK, Unknown motor
Mass
260 kg wet, ~248 kg dry
Launch date (UTC)
2020-09-03 (5 years ago)
Launch vehicle
FALCON 9
Launch site
Air Force Eastern Test Range (AFETR)
Object type
Payload
Rocket body
Debris
Shape & HBR
Box + 1 Pan, 4.4 m
Radar Cross Section
13.562 m², Large (>1 m²)

Expand to show TLE details & history
Last TLE update: 1 day ago

TLE from 1 day ago
0 STARLINK-1653
1 46352U 20062AD  25259.71663567 -.00000557  00000-0 -18538-4 0  9992
2 46352  53.0553  57.6118 0001312  89.3791 270.7349 15.06394588278373
Epoch: 2025-09-16T17:11Z
TLE epoch observation values (Epoch: 2025-09-16T17:11:57.321Z)
Latitude
0.00001°
Longitude
163.72003°
Altitude
548.096 km
Speed
7.589 km/s
True Right ascension
03h 50m 26s
True Declination
0° 00' 00"
Sunlit
Object was in full shadow at epoch
Visualization orbit readout
Latitude
Unknown
Longitude
Unknown
Altitude
Unknown
Speed
Unknown
Apparent Right ascension
Unknown
Apparent Declination
Unknown
Sunlit
N/A
Visualization observer readout
Local Sidereal Time
11:02:20
Azimuth
Unknown
Elevation
Unknown
Doppler factor
Unknown
Orbital elements
Apogee altitude
548.407 km
Perigee altitude
546.59 km
Semi-major axis
6,925.636 km
Eccentricity
0.00013
Inclination
53.0553°
RAAN
57.6118°
Arg. of periapsis
89.3791°
True anomaly
270.71987°
Mean anomaly
270.7349°
Eccentric anomaly
270.72738°
Mean motion
3.76577 °/min
Orbital period
95.6 mins
BSTAR
-0.000018538
Loading maneuver chart data...
Computing Atmospheric mass density...
Loading historical data...
Loading historical data...
Loading historical data...
Loading historical data...
Loading historical data...
Loading historical data...
Loading historical data...

Documentation

Showing up to 5 results
|